Hettinger, ND

5:57 PM MDT on June 22, 2017 (GMT -0600)
Hettinger Municipal

Weather History for KHEI - February, 2013

Change the Weather History Date:

Friday, February 8, 2013

  Actual Average Record
Temperature  
Mean Temperature 27 °F -  
Max Temperature 29 °F 30 °F 61 °F (2000)
Min Temperature 24 °F 8 °F -24 °F (2011)
Degree Days  
Heating Degree Days 38 46  
Month to date heating degree days 280 371  
Since 1 July heating degree days 5168 5447  
Moisture  
Dew Point 24 °F    
Average Humidity 90    
Maximum Humidity 92    
Minimum Humidity 85    
Precipitation  
Precipitation 0.00 in 0.02 in 0.16 in (2009)
Month to date precipitation 0.03 0.15  
Year to date precipitation 0.06 0.46  
Sea Level Pressure  
Sea Level Pressure 29.96 in    
Wind  
Wind Speed 7 mph (SE)    
Max Wind Speed 12 mph    
Max Gust Speed 14 mph    
Visibility 6 miles    
Events Fog    
T = Trace of Precipitation, MM = Missing Value Source: NWS Daily Summary

Daily Weather History Graph

Daily Weather History Graph

Search for Another Location

Airport or City:

Trip Planner

Search our weather history database for the weather conditions in past years. The results will help you decide how hot, cold, wet, or windy it might be!

Date:

Astronomy

Feb. 08, 2013 Rise Set
Actual Time 7:03 AM MST 5:06 PM MST
Civil Twilight 6:32 AM MST 5:38 PM MST
Nautical Twilight 5:56 AM MST 6:13 PM MST
Astronomical Twilight 5:22 AM MST 6:48 PM MST
Moon 5:36 AM MST (2/8) 3:41 PM MST (2/8)
Length of Visible Light 11h 06m
Length of Day
10h 03m
Waning Crescent, 3% of the Moon is Illuminated
Feb 8
Waning Crescent
Feb 10
New
Feb 17
First Quarter
Feb 25
Full
Mar 4
Last Quarter

Hourly Weather History & Observations

Time (MST) Temp. Windchill Dew Point Humidity Pressure Visibility Wind Dir Wind Speed Gust Speed Precip Events Conditions
12:53 AM 26.1 °F 14.0 °F 24.1 °F 92% 30.06 in 1.0 mi ESE 15.0 mph 21.9 mph N/A   Mist
1:53 AM 25.0 °F 12.6 °F 23.0 °F 92% 30.04 in 1.5 mi SE 15.0 mph - N/A   Overcast
2:53 AM 25.0 °F 12.2 °F 23.0 °F 92% 30.02 in 3.0 mi SE 16.1 mph 23.0 mph N/A   Overcast
3:30 AM 24.8 °F 12.9 °F 21.2 °F 86% 29.94 in 2.0 mi SE 13.8 mph - N/A   Overcast
3:43 AM 24.8 °F 12.4 °F 21.2 °F 86% 29.94 in 4.0 mi SE 15.0 mph - N/A   Overcast
3:53 AM 24.1 °F 11.0 °F 21.9 °F 91% 30.00 in 3.0 mi SE 16.1 mph - N/A   Overcast
4:20 AM 24.8 °F 13.4 °F 21.2 °F 86% 29.93 in 2.0 mi SE 12.7 mph - N/A   Overcast
4:53 AM 24.1 °F 12.5 °F 23.0 °F 96% 30.02 in 1.8 mi SE 12.7 mph - N/A   Overcast
5:05 AM 24.8 °F 12.9 °F 23.0 °F 93% 29.94 in 2.5 mi SSE 13.8 mph - N/A   Overcast
5:13 AM 24.8 °F 15.3 °F 23.0 °F 93% 29.93 in 4.0 mi SSE 9.2 mph - N/A   Overcast
5:53 AM 25.0 °F 13.6 °F 23.0 °F 92% 30.01 in 6.0 mi SSE 12.7 mph - N/A   Overcast
6:53 AM 25.0 °F 14.2 °F 23.0 °F 92% 30.01 in 6.0 mi SSE 11.5 mph - N/A   Overcast
7:53 AM 25.0 °F 15.5 °F 23.0 °F 92% 30.01 in 8.0 mi SSE 9.2 mph - N/A   Overcast
8:53 AM 25.0 °F 15.5 °F 23.0 °F 92% 30.03 in 8.0 mi SSE 9.2 mph - N/A   Overcast
9:53 AM 25.0 °F 17.1 °F 23.0 °F 92% 30.01 in 8.0 mi SSE 6.9 mph - N/A   Overcast
10:53 AM 26.1 °F 20.5 °F 24.1 °F 92% 30.01 in 9.0 mi SSW 4.6 mph - N/A   Overcast
11:53 AM 26.1 °F 21.9 °F 24.1 °F 92% 29.99 in 10.0 mi WSW 3.5 mph - N/A   Overcast
12:02 PM 26.6 °F - 24.8 °F 93% 29.89 in 10.0 mi Calm Calm - N/A   Overcast
12:53 PM 27.0 °F - 25.0 °F 92% 29.96 in 10.0 mi Calm Calm - N/A   Overcast
1:53 PM 28.0 °F - 25.0 °F 88% 29.94 in 10.0 mi Calm Calm - N/A   Overcast
2:53 PM 28.9 °F - 25.0 °F 85% 29.94 in 10.0 mi Calm Calm - N/A   Overcast
3:53 PM 28.9 °F 23.9 °F 24.1 °F 82% 29.94 in 10.0 mi Variable 4.6 mph - N/A   Overcast
4:38 PM 28.4 °F - 24.8 °F 86% 29.85 in 10.0 mi Calm Calm - N/A   Overcast
4:53 PM 28.0 °F 22.8 °F 24.1 °F 85% 29.96 in 10.0 mi South 4.6 mph - N/A   Overcast
5:53 PM 28.0 °F - 24.1 °F 85% 29.96 in 10.0 mi Calm Calm - N/A   Overcast
6:53 PM 27.0 °F 21.6 °F 24.1 °F 89% 29.97 in 10.0 mi NNW 4.6 mph - N/A   Overcast
7:00 PM 26.6 °F 20.0 °F 24.8 °F 93% 29.87 in 9.0 mi NNW 5.8 mph - N/A   Overcast
7:53 PM 27.0 °F 19.5 °F 24.1 °F 89% 29.96 in 10.0 mi NW 6.9 mph - N/A   Overcast
8:53 PM 26.1 °F - 24.1 °F 92% 29.96 in 10.0 mi Calm Calm - N/A   Overcast
9:53 PM 27.0 °F 18.0 °F 24.1 °F 89% 29.95 in 9.0 mi North 9.2 mph - N/A   Overcast
10:53 PM 27.0 °F 20.5 °F 25.0 °F 92% 29.94 in 5.0 mi North 5.8 mph - N/A   Overcast
11:14 PM 26.6 °F 17.5 °F 24.8 °F 93% 29.84 in 2.0 mi North 9.2 mph - N/A   Overcast
11:22 PM 26.6 °F 19.1 °F 24.8 °F 93% 29.85 in 1.2 mi North 6.9 mph - N/A   Overcast
11:32 PM 26.6 °F 16.2 °F 24.8 °F 93% 29.84 in 0.8 mi North 11.5 mph - N/A   Mist
11:53 PM 26.1 °F 16.8 °F 24.1 °F 92% 29.94 in 0.5 mi North 9.2 mph - N/A Fog Light Freezing Fog